Rock Hill, SC

9:42 PM EST on January 24, 2017 (GMT -0500)
Rock Hill-York County-Bryant

Weather History for KUZA - January, 2014

Change the Weather History Date:

Sunday, January 12, 2014

  Actual Average Record
Temperature  
Mean Temperature 44 °F -  
Max Temperature 55 °F 48 °F 73 °F (2013)
Min Temperature 33 °F 29 °F 10 °F (1981)
Degree Days  
Heating Degree Days 21    
Moisture  
Dew Point 33 °F    
Average Humidity 65    
Maximum Humidity 96    
Minimum Humidity 37    
Precipitation  
Precipitation 0.00 in - - ()
Sea Level Pressure  
Sea Level Pressure 30.06 in    
Wind  
Wind Speed 6 mph (WSW)    
Max Wind Speed 12 mph    
Max Gust Speed -    
Visibility 10 miles    
Events      
Averages and records for this station are not official NWS values.
T = Trace of Precipitation, MM = Missing Value Source: NWS Daily Summary

Daily Weather History Graph

Daily Weather History Graph

Search for Another Location

Airport or City:

Trip Planner

Search our weather history database for the weather conditions in past years. The results will help you decide how hot, cold, wet, or windy it might be!

Date:

Astronomy

Jan. 12, 2014 Rise Set
Actual Time 7:32 AM EST 5:33 PM EST
Civil Twilight 7:04 AM EST 6:00 PM EST
Nautical Twilight 6:33 AM EST 6:31 PM EST
Astronomical Twilight 6:03 AM EST 7:02 PM EST
Moon 2:59 PM EST (1/12) 4:30 AM EST (1/12)
Length of Visible Light 10h 56m
Length of Day
10h 00m
Waxing Gibbous, 89% of the Moon is Illuminated
Jan 12
Waxing Gibbous
Jan 15
Full
Jan 24
Last Quarter
Jan 30
New
Feb 6
First Quarter

Hourly Weather History & Observations

Time (EST) Temp. Windchill Dew Point Humidity Pressure Visibility Wind Dir Wind Speed Gust Speed Precip Events Conditions
12:54 AM 48.9 °F - 37.9 °F 66% 29.79 in 10.0 mi NW 8.1 mph - N/A   Clear
1:54 AM 46.0 °F 42.5 °F 36.0 °F 68% 29.82 in 10.0 mi WNW 6.9 mph - N/A   Clear
2:54 AM 45.0 °F 41.8 °F 35.1 °F 68% 29.85 in 10.0 mi West 5.8 mph - N/A   Clear
3:54 AM 44.1 °F 42.5 °F 33.1 °F 65% 29.90 in 10.0 mi West 3.5 mph - N/A   Clear
4:54 AM 42.1 °F 38.4 °F 32.0 °F 67% 29.93 in 10.0 mi West 5.8 mph - N/A   Clear
5:54 AM 37.0 °F 34.5 °F 30.9 °F 79% 29.96 in 10.0 mi West 3.5 mph - N/A   Clear
6:54 AM 34.0 °F 28.8 °F 30.0 °F 85% 29.99 in 10.0 mi WSW 5.8 mph - N/A   Clear
7:54 AM 33.1 °F 28.7 °F 28.9 °F 85% 30.03 in 10.0 mi WSW 4.6 mph - N/A   Clear
8:54 AM 42.1 °F 37.7 °F 34.0 °F 73% 30.06 in 10.0 mi WSW 6.9 mph - N/A   Clear
9:54 AM 48.0 °F - 33.1 °F 56% 30.12 in 10.0 mi West 6.9 mph - N/A   Clear
10:54 AM 50.0 °F - 32.0 °F 50% 30.13 in 10.0 mi WNW 11.5 mph - N/A   Clear
11:54 AM 53.1 °F - 32.0 °F 45% 30.12 in 10.0 mi West 9.2 mph - N/A   Clear
12:54 PM 54.0 °F - 30.0 °F 40% 30.10 in 10.0 mi West 5.8 mph - N/A   Clear
1:54 PM 55.0 °F - 30.9 °F 40% 30.09 in 10.0 mi WNW 3.5 mph - N/A   Clear
2:54 PM 55.9 °F - 30.0 °F 37% 30.09 in 10.0 mi WNW 9.2 mph - N/A   Clear
3:54 PM 55.9 °F - 30.0 °F 37% 30.12 in 10.0 mi WSW 4.6 mph - N/A   Clear
4:54 PM 55.0 °F - 30.9 °F 40% 30.13 in 10.0 mi SSW 5.8 mph - N/A   Clear
5:54 PM 48.9 °F - 34.0 °F 56% 30.16 in 10.0 mi Calm Calm - N/A   Clear
6:54 PM 43.0 °F 40.3 °F 35.1 °F 74% 30.17 in 10.0 mi South 4.6 mph - N/A   Clear
7:54 PM 42.1 °F 39.2 °F 35.1 °F 76% 30.19 in 10.0 mi SSW 4.6 mph - N/A   Clear
8:54 PM 39.0 °F 35.7 °F 34.0 °F 82% 30.19 in 10.0 mi SSW 4.6 mph - N/A   Clear
9:54 PM 37.0 °F 33.3 °F 34.0 °F 89% 30.20 in 10.0 mi SSW 4.6 mph - N/A   Clear
10:54 PM 36.0 °F 32.1 °F 33.1 °F 89% 30.19 in 10.0 mi SSW 4.6 mph - N/A   Clear
11:54 PM 33.1 °F 28.7 °F 32.0 °F 96% 30.18 in 10.0 mi SSW 4.6 mph - N/A   Clear